Regional Weather Roundup
Issued by NWS

Home | Current Version | Previous Version | Text Only | Print | Product List | Glossary On
Versions: 1 2 3 4 5 6 7 8 9 10 11 12 13 14 15 16 17 18 19 20 21 22 23 24 25 26 27 28 29 30 31 32 33 34 35 36 37 38 39 40 41 42 43 44 45 46 47 48 49 50
000
ASUS43 KOAX 231710
RWRNE

WEATHER ROUNDUP FOR NEBRASKA
NATIONAL WEATHER SERVICE OMAHA NE
1200 PM CDT MON APR 23 2018

NOTES: SATELLITE DATA IS BEING USED TO AUGMENT CLOUD COVER ABOVE
       12000 FEET.
       "FAIR" INDICATES FEW OR NO CLOUDS BELOW 12,000 FEET WITH NO
       SIGNIFICANT WEATHER AND/OR OBSTRUCTIONS TO VISIBILITY.


NEZ001>004-019>022-054>056-231800-
NEBRASKA PANHANDLE

CITY           SKY/WX    TMP DP  RH WIND       PRES   REMARKS
SCOTTSBLUFF    MOSUNNY   59  44  57 SE14      30.08F
ALLIANCE       MOSUNNY   59  40  49 S20       30.11S
CHADRON        SUNNY     64  41  42 S15       30.07S
GORDON         FAIR      60  40  46 S13       30.11S
KIMBALL        MOSUNNY   58  37  44 S15G21    30.10F
SIDNEY         SUNNY     59  39  47 S17       30.12S
$$

NEZ057>060-069>072-079>082-231800-
SOUTHWEST NEBRASKA

CITY           SKY/WX    TMP DP  RH WIND       PRES   REMARKS
NORTH PLATTE   SUNNY     62  42  47 SW12      30.16S
IMPERIAL       SUNNY     60  39  45 SE15      30.15S
LEXINGTON      SUNNY     62  40  44 SE8       30.18S
MCCOOK         SUNNY     62  40  44 SE12G18   30.16F
OGALLALA       SUNNY     59  41  52 S15       30.15S
$$

NEZ005>010-023>029-035>040-094-231800-
NORTH CENTRAL NEBRASKA

CITY           SKY/WX    TMP DP  RH WIND       PRES   REMARKS
VALENTINE      SUNNY     64  38  38 S17G26    30.15S
AINSWORTH      SUNNY     62  40  44 S13       30.16F
BROKEN BOW     SUNNY     62  39  42 S7        30.17S
O`NEILL        SUNNY     67  34  29 S8        30.18F
ORD            SUNNY     65  36  34 SE10      30.16F
THEDFORD       SUNNY     62  39  42 S15G21    30.16F
$$

NEZ041-046>049-061>064-073>077-083>087-231800-
SOUTH CENTRAL NEBRASKA

CITY           SKY/WX    TMP DP  RH WIND       PRES   REMARKS
GRAND ISLAND   SUNNY     64  40  41 SE5       30.18F
AURORA         SUNNY     64  37  37 CALM      30.18S
HASTINGS       SUNNY     62  40  44 VRB6      30.18F
HEBRON         SUNNY     67  34  28 E7        30.16F
HOLDREGE       SUNNY     62  38  40 CALM      30.17F
KEARNEY        SUNNY     63  39  41 S10       30.18F
YORK             N/A     64  37  36 CALM      30.18S
$$

NEZ011>018-030>034-042>045-231800-
NORTHEAST NEBRASKA

CITY           SKY/WX    TMP DP  RH WIND       PRES   REMARKS
NORFOLK        SUNNY     66  32  28 E5        30.18F
ALBION         SUNNY     66  36  33 E5        30.18S
BLAIR          SUNNY     65  31  28 NE9       30.18F
COLUMBUS       SUNNY     65  39  38 W5        30.19F
FREMONT        SUNNY     67  32  27 SE3       30.18F
TEKAMAH        SUNNY     67  30  25 NW5       30.18F
WAYNE          SUNNY     66  30  26 SE3       30.19S
$$

NEZ050>053-065>068-078-088>093-231800-
SOUTHEAST NEBRASKA

CITY           SKY/WX    TMP DP  RH WIND       PRES   REMARKS
LINCOLN        SUNNY     68  34  28 E5        30.18F
OMAHA EPPLEY   MOSUNNY   69  30  23 NE9       30.17F
BEATRICE       SUNNY     69  33  26 NE12      30.15F
FALLS CITY     SUNNY     70  32  24 NE14G22   30.13F
NEBRASKA CITY  SUNNY     68  33  27 E15       30.15F
PLATTSMOUTH    SUNNY     67  30  24 NE9       30.16F
$$

NEZ044-045-051>053-067-231800-
OMAHA AREA

CITY           SKY/WX    TMP DP  RH WIND       PRES   REMARKS
OMAHA EPPLEY   MOSUNNY   69  30  23 NE9       30.17F
BLAIR          SUNNY     65  31  28 NE9       30.18F
FREMONT        SUNNY     67  32  27 SE3       30.18F
MILLARD        SUNNY     66  32  27 CALM      30.17F
OFFUTT AFB     SUNNY     68  31  25 N7        30.16F
PLATTSMOUTH    SUNNY     67  30  24 NE9       30.16F
WAHOO          FAIR      68  26  20 NE3       30.17F
$$



USA.gov is the U.S. government's official web portal to all federal, state and local government web resources and services.